[[{"header":{"parameterUnit":"m.s-1","parameterCategory":1,"la1":30.2991,"la2":30.254,"lo1":-89.0895,"lo2":-89.0444,"dy":0.0017,"dx":0.0017,"nx":28,"ny":28,"refTime":"2025-01-25T09:00:00:Z","depth":0,"parameterNumber":2,"parameterNumberName":"U-component_of_WINDS"},"data":[0,0,0,0,0,0,0,0,0,0,0,0,0,0,0,0,0,0,0,0,0,0,0,0,0,0,0,0,0,0,0,0,0,0,0,0,0,0,0,0,0,0,0,0,0,0,0,0,0,0,0,0,0,0,0,0,0,0,-2.2608,-2.2609,0,-2.268,-2.268,-2.2681,-2.2624,-2.2622,-2.2619,-2.2617,-2.2691,-2.2695,-2.2699,0,0,0,0,0,0,0,0,0,0,0,0,0,-2.2422,-2.2425,-2.2608,-2.2609,-2.261,-2.268,-2.2681,-2.2681,-2.2625,-2.2622,-2.2619,-2.2616,-2.269,-2.2695,-2.27,0,0,0,0,0,0,0,0,0,0,0,0,0,-2.2499,-2.2426,-2.2608,-2.259,-2.2589,-2.2679,-2.2681,-2.2682,-2.2625,-2.2621,-2.2618,-2.2614,-2.2688,-2.2694,-2.27,-2.2813,0,0,-2.272,-2.2723,0,0,0,0,0,0,0,0,-2.2495,-2.2506,-2.2592,-2.2591,-2.259,-2.2639,-2.2642,-2.2726,-2.2626,-2.2611,-2.2617,-2.2613,-2.2677,-2.2684,-2.2705,-2.2816,-2.2819,-2.272,-2.2724,-2.2727,-2.2729,0,0,0,0,0,0,0,-2.2489,-2.2502,-2.2636,-2.2593,-2.2592,-2.2578,-2.2585,-2.2657,-2.2664,-2.2612,-2.2608,-2.2618,-2.2676,-2.2699,-2.2707,-2.282,-2.272,-2.2726,-2.273,-2.2732,-2.3025,-2.3029,0,0,0,0,0,0,-2.2486,-2.2498,-2.2634,-2.2639,-2.2532,-2.2584,-2.2592,-2.2627,-2.2663,-2.2665,-2.2621,-2.2615,-2.269,-2.2699,-2.2709,-2.2842,-2.2727,-2.2733,-2.2736,-2.3021,-2.3026,-2.303,0,0,0,0,0,0,-2.2482,-2.2498,-2.2631,-2.2567,-2.2583,-2.2591,-2.2631,-2.2631,-2.2654,-2.2669,-2.267,-2.2644,-2.2688,-2.27,-2.2787,-2.2844,-2.2736,-2.2741,-2.3016,-2.3023,-2.3028,-2.3109,0,0,0,0,0,0,-2.2477,-2.2497,-2.254,-2.2569,-2.2587,-2.2709,-2.2635,-2.2635,-2.2665,-2.2658,-2.2691,-2.2693,-2.2686,-2.2778,-2.2793,-2.285,-2.2746,-2.3011,-2.3019,-2.3026,-2.3101,-2.3117,-2.313,0,0,0,0,0,-2.247,-2.2561,-2.2543,-2.256,-2.2641,-2.2712,-2.2722,-2.2712,-2.267,-2.2713,-2.2722,-2.2692,-2.2835,-2.2787,-2.2804,-2.2864,-2.3008,-2.3017,-2.3026,-2.3095,-2.3114,-2.313,0,0,0,0,0,0,-2.254,-2.2564,-2.2545,-2.2647,-2.2678,-2.2702,-2.2756,-2.2733,-2.2777,-2.2768,-2.2754,-2.2762,-2.2853,-2.2867,-2.2813,-2.2974,-2.2914,-2.2927,-2.2961,-2.2979,-2.2994,-2.2989,-2.2752,0,0,0,0,0,-2.2567,-2.2623,-2.2641,-2.273,-2.2746,-2.2749,-2.2779,-2.2769,-2.28,-2.2813,-2.2828,-2.286,-2.2912,-2.2946,-2.2995,-2.3103,-2.3108,-2.3152,-2.3167,-2.3178,-2.319,-2.3246,-2.3266,-2.3059,-2.3059,-2.3059,0,0,-2.2624,-2.2644,-2.2681,-2.2744,-2.2767,-2.2824,-2.276,-2.2824,-2.2867,-2.2822,-2.2905,-2.2918,-2.2952,-2.3049,-2.3093,-2.3064,-2.3248,-2.319,-2.3199,-2.3204,-2.3258,-2.3277,-2.3295,-2.3066,-2.3064,-2.3063,0,0,-2.2757,-2.2778,-2.2854,-2.2877,-2.2912,-2.2913,-2.2931,-2.2958,-2.2965,-2.3047,-2.3015,-2.3065,-2.3155,-2.318,-2.3205,-2.3345,-2.3318,-2.3361,-2.3438,-2.3493,-2.3509,-2.3524,-2.3573,-2.3591,-2.3372,-2.3373,-2.3373,0,-2.2824,-2.2909,-2.2896,-2.2962,-2.299,-2.2952,-2.3028,-2.3051,-2.31,-2.3121,-2.3087,-2.3198,-2.3218,-2.3321,-2.3355,-2.3376,-2.3396,-2.3358,-2.3508,-2.3522,-2.3535,-2.3582,-2.3601,-2.3378,-2.3377,-2.3377,-2.3376,0,-2.2989,-2.3049,-2.3106,-2.3153,-2.3188,-2.3258,-2.3255,-2.3292,-2.3278,-2.3282,-2.3366,-2.3388,-2.344,-2.3463,-2.3451,-2.3564,-2.3544,-2.351,-2.345,-2.356,-2.3604,-2.3622,-2.3385,-2.3383,-2.3382,-2.338,0,0,-2.317,-2.3207,-2.3228,-2.3248,-2.3282,-2.3328,-2.3397,-2.3447,-2.3478,-2.3513,-2.3569,-2.3645,-2.3613,-2.3641,-2.363,-2.3679,-2.3787,-2.3638,-2.3638,-2.3664,-2.3912,-2.3938,-2.3959,-2.3769,-2.3773,-2.3775,-2.3909,0,-2.3304,-2.3423,-2.3412,-2.3524,-2.3579,-2.3542,-2.3601,-2.3628,-2.3634,-2.368,-2.3686,-2.374,-2.3693,-2.371,-2.3756,-2.3764,-2.3837,-2.3755,-2.3822,-2.3824,-2.3814,-2.3982,-2.401,-2.4135,-2.3926,-2.3929,-2.3931,0,-2.3477,-2.3517,-2.3635,-2.3659,-2.3681,-2.3735,-2.3779,-2.3824,-2.3853,-2.3854,-2.3884,-2.3865,-2.3932,-2.3871,-2.3964,-2.3908,-2.3935,-2.3943,-2.3947,-2.3953,-2.3884,-2.3992,-2.4174,-2.4193,-2.3958,-2.3956,-2.3954,0,-2.3596,-2.3679,-2.376,-2.3778,-2.3809,-2.3847,-2.3862,-2.3887,-2.3918,-2.3956,-2.3975,-2.4021,-2.4047,-2.4083,-2.4076,-2.4032,-2.417,-2.4108,-2.4172,-2.4172,-2.4203,-2.4202,-2.4392,-2.4221,-2.4221,-2.422,-2.422,0,-2.3748,-2.3821,-2.3813,-2.3863,-2.3944,-2.393,-2.401,-2.402,-2.4043,-2.4093,-2.4064,-2.4112,-2.41,-2.4148,-2.4143,-2.422,-2.4232,-2.4234,-2.4232,-2.4236,-2.4236,-2.4254,-2.4245,-2.4225,-2.4224,-2.4223,-2.4222,0,-2.3895,-2.3893,-2.3978,-2.3999,-2.4006,-2.4065,-2.4083,-2.4129,-2.4131,-2.4196,-2.421,-2.4214,-2.4268,-2.4264,-2.4326,-2.4322,-2.4417,-2.4405,-2.4407,-2.4405,-2.4468,-2.4462,-2.4677,-2.4704,-2.4515,-2.4517,-2.4519,0,-2.3992,-2.4047,-2.4074,-2.4105,-2.4122,-2.4173,-2.4203,-2.4191,-2.4224,-2.426,-2.4302,-2.4354,-2.4394,-2.4482,-2.449,-2.4536,-2.4525,-2.4597,-2.4532,-2.4534,-2.4525,-2.4522,-2.4527,-2.461,-2.4612,-2.4614,-2.4615,0,-2.4164,-2.4159,-2.4204,-2.4248,-2.4284,-2.4319,-2.435,-2.4377,-2.4368,-2.4406,-2.446,-2.4492,-2.4553,-2.4604,-2.4648,-2.4662,-2.4638,-2.4635,-2.4652,-2.4658,-2.4657,-2.4658,-2.4442,-2.4631,-2.4629,-2.4628,-2.4627,-2.4626,-2.4288,-2.4335,-2.4361,-2.4411,-2.4433,-2.4462,-2.4506,-2.4513,-2.4558,-2.4607,-2.4597,-2.4658,-2.4684,-2.474,-2.4759,-2.4806,-2.478,-2.4805,-2.4812,-2.4818,-2.4825,-2.4649,-2.4814,-2.4814,-2.4813,-2.4813,-2.4813,0,-2.4458,-2.4472,-2.4518,-2.4562,-2.4601,-2.4573,-2.4605,-2.464,-2.4694,-2.4721,-2.476,-2.4822,-2.4871,-2.4882,-2.4929,-2.4964,-2.4954,-2.4977,-2.4974,-2.4978,-2.4846,-2.4826,-2.4985,-2.4985,-2.4985,-2.4984,-2.4984,-2.4984,-2.4551,-2.4629,-2.4627,-2.4714,-2.4728,-2.4787,-2.4808,-2.4834,-2.4855,-2.4925,-2.4966,-2.4972,-2.4992,-2.5039,-2.5083,-2.5084,-2.5103,-2.513,-2.5128,-2.5004,-2.4987,-2.4971,-2.4952,-2.5135,-2.5135,-2.5256,-2.5257,-2.5258]},{"header":{"parameterUnit":"m.s-1","parameterCategory":1,"la1":30.2991,"la2":30.254,"lo1":-89.0895,"lo2":-89.0444,"dy":0.0017,"dx":0.0017,"nx":28,"ny":28,"refTime":"2025-01-25T09:00:00:Z","depth":0,"parameterNumber":3,"parameterNumberName":"V-component_of_WINDS"},"data":[0,0,0,0,0,0,0,0,0,0,0,0,0,0,0,0,0,0,0,0,0,0,0,0,0,0,0,0,0,0,0,0,0,0,0,0,0,0,0,0,0,0,0,0,0,0,0,0,0,0,0,0,0,0,0,0,0,0,-2.3918,-2.3919,0,-2.3986,-2.3987,-2.3987,-2.3989,-2.3988,-2.3987,-2.3987,-2.4053,-2.4056,-2.4058,0,0,0,0,0,0,0,0,0,0,0,0,0,-2.3787,-2.3789,-2.3918,-2.3919,-2.392,-2.3986,-2.3987,-2.3988,-2.3989,-2.3988,-2.3987,-2.3986,-2.4053,-2.4056,-2.4059,0,0,0,0,0,0,0,0,0,0,0,0,0,-2.3848,-2.379,-2.3918,-2.3929,-2.393,-2.3985,-2.3987,-2.3988,-2.3989,-2.3988,-2.3987,-2.3986,-2.4052,-2.4055,-2.4059,-2.4107,0,0,-2.4071,-2.4072,0,0,0,0,0,0,0,0,-2.3845,-2.3853,-2.3926,-2.3928,-2.393,-2.3978,-2.3965,-2.4028,-2.399,-2.3967,-2.3987,-2.3985,-2.4029,-2.4035,-2.405,-2.411,-2.4113,-2.4071,-2.4073,-2.4075,-2.4076,0,0,0,0,0,0,0,-2.384,-2.385,-2.3945,-2.3927,-2.393,-2.3929,-2.3936,-2.3977,-2.4004,-2.3969,-2.3969,-2.3977,-2.403,-2.4046,-2.4051,-2.4114,-2.4071,-2.4074,-2.4077,-2.4078,-2.4216,-2.4217,0,0,0,0,0,0,-2.3835,-2.3847,-2.3943,-2.3947,-2.3884,-2.3932,-2.3941,-2.3964,-2.4004,-2.4009,-2.3978,-2.3977,-2.404,-2.4047,-2.4054,-2.4112,-2.4075,-2.4078,-2.4081,-2.4214,-2.4216,-2.4217,0,0,0,0,0,0,-2.3832,-2.3843,-2.394,-2.3897,-2.3909,-2.3936,-2.3962,-2.3966,-2.3982,-2.4011,-2.4015,-2.399,-2.404,-2.4048,-2.4094,-2.4114,-2.408,-2.4084,-2.4213,-2.4215,-2.4217,-2.4228,0,0,0,0,0,0,-2.3828,-2.3842,-2.3862,-2.3897,-2.3911,-2.398,-2.3963,-2.3968,-2.3989,-2.3988,-2.4023,-2.4028,-2.4039,-2.4088,-2.4097,-2.4119,-2.4087,-2.4211,-2.4214,-2.4216,-2.4226,-2.4231,-2.4234,0,0,0,0,0,-2.3823,-2.3862,-2.3863,-2.3874,-2.3936,-2.3981,-2.3989,-2.4002,-2.3991,-2.401,-2.4028,-2.4027,-2.4111,-2.4093,-2.4103,-2.4126,-2.421,-2.4213,-2.4216,-2.4224,-2.423,-2.4234,0,0,0,0,0,0,-2.3827,-2.3867,-2.3868,-2.392,-2.3947,-2.3981,-2.4006,-2.4007,-2.4038,-2.4036,-2.405,-2.4058,-2.4103,-2.4119,-2.4098,-2.4174,-2.4159,-2.4164,-2.4161,-2.4167,-2.4171,-2.4165,-2.409,0,0,0,0,0,-2.3834,-2.3868,-2.3901,-2.3943,-2.3957,-2.3979,-2.3999,-2.4006,-2.4035,-2.4046,-2.4068,-2.4095,-2.4127,-2.4148,-2.4179,-2.4229,-2.4236,-2.425,-2.4254,-2.4257,-2.4261,-2.4287,-2.4293,-2.4228,-2.4227,-2.4227,0,0,-2.3849,-2.3875,-2.3895,-2.3944,-2.3966,-2.4,-2.3988,-2.4025,-2.4049,-2.4052,-2.4095,-2.4112,-2.4143,-2.419,-2.4212,-2.4205,-2.428,-2.4261,-2.4263,-2.4265,-2.429,-2.4296,-2.4302,-2.423,-2.4229,-2.4229,0,0,-2.3892,-2.3916,-2.3953,-2.3975,-2.4009,-2.4024,-2.4032,-2.4066,-2.4078,-2.4122,-2.4124,-2.4153,-2.4209,-2.423,-2.4248,-2.4299,-2.4298,-2.4309,-2.4329,-2.4354,-2.4359,-2.4364,-2.438,-2.4386,-2.4313,-2.4313,-2.4313,0,-2.3906,-2.3957,-2.3972,-2.4008,-2.4028,-2.4033,-2.407,-2.409,-2.4132,-2.4146,-2.4138,-2.4207,-2.4228,-2.428,-2.4292,-2.4307,-2.4317,-2.4304,-2.4357,-2.4362,-2.4367,-2.4382,-2.4389,-2.4314,-2.4314,-2.4314,-2.4314,0,-2.3971,-2.4007,-2.4032,-2.4073,-2.4097,-2.4133,-2.4152,-2.4174,-2.418,-2.4195,-2.4239,-2.4265,-2.43,-2.4313,-2.4319,-2.4365,-2.436,-2.4355,-2.4339,-2.4374,-2.4389,-2.4395,-2.4315,-2.4315,-2.4315,-2.4314,0,0,-2.4019,-2.4067,-2.4076,-2.4094,-2.4131,-2.4158,-2.4194,-2.423,-2.4248,-2.4276,-2.4306,-2.4352,-2.4347,-2.4368,-2.4376,-2.4398,-2.4434,-2.439,-2.4391,-2.4396,-2.4485,-2.4488,-2.4495,-2.4435,-2.4436,-2.4437,-2.4482,0,-2.4065,-2.413,-2.4143,-2.4198,-2.423,-2.4235,-2.4266,-2.4291,-2.4306,-2.4334,-2.435,-2.4382,-2.4374,-2.4386,-2.4408,-2.4425,-2.4452,-2.4423,-2.4461,-2.4462,-2.4451,-2.4503,-2.4506,-2.4548,-2.4488,-2.4489,-2.449,0,-2.4128,-2.4158,-2.4216,-2.4248,-2.4262,-2.429,-2.4323,-2.4351,-2.4379,-2.4388,-2.4411,-2.4416,-2.4452,-2.4436,-2.4484,-2.4464,-2.448,-2.4491,-2.4493,-2.4496,-2.4477,-2.4506,-2.4561,-2.4567,-2.45,-2.4499,-2.4498,0,-2.4154,-2.421,-2.4252,-2.4267,-2.4306,-2.4325,-2.4342,-2.4369,-2.4389,-2.4418,-2.4431,-2.4463,-2.4481,-2.4505,-2.4518,-2.4506,-2.4566,-2.4551,-2.4573,-2.4572,-2.4584,-2.4583,-2.4641,-2.4597,-2.4597,-2.4597,-2.4597,0,-2.4204,-2.4239,-2.4264,-2.429,-2.4329,-2.4344,-2.4382,-2.4398,-2.4422,-2.445,-2.4456,-2.4482,-2.4499,-2.4526,-2.4537,-2.4575,-2.4583,-2.459,-2.4592,-2.4589,-2.4588,-2.4599,-2.4596,-2.4598,-2.4598,-2.4598,-2.4597,0,-2.424,-2.4259,-2.4304,-2.4337,-2.4346,-2.4373,-2.4401,-2.4425,-2.444,-2.4475,-2.4484,-2.4506,-2.4539,-2.4555,-2.4596,-2.4603,-2.4646,-2.4647,-2.4636,-2.4637,-2.4657,-2.4654,-2.4724,-2.4733,-2.4683,-2.4684,-2.4684,0,-2.427,-2.4297,-2.4333,-2.4352,-2.4369,-2.4401,-2.4421,-2.4437,-2.4458,-2.4492,-2.4511,-2.4545,-2.4572,-2.4624,-2.4644,-2.4674,-2.4675,-2.4698,-2.468,-2.4675,-2.4674,-2.4672,-2.4674,-2.47,-2.4701,-2.4701,-2.4701,0,-2.432,-2.4327,-2.4357,-2.4391,-2.4415,-2.4442,-2.4468,-2.4483,-2.4502,-2.4525,-2.456,-2.4581,-2.4623,-2.4655,-2.4687,-2.4703,-2.4705,-2.4707,-2.4713,-2.4709,-2.4702,-2.4705,-2.4643,-2.4705,-2.4705,-2.4704,-2.4704,-2.4704,-2.4353,-2.4376,-2.4405,-2.4438,-2.4459,-2.4483,-2.4507,-2.4525,-2.4554,-2.4589,-2.4597,-2.4632,-2.4659,-2.4702,-2.4719,-2.4746,-2.4741,-2.4751,-2.4753,-2.4755,-2.4755,-2.4698,-2.4753,-2.4752,-2.4752,-2.4752,-2.4752,0,-2.4402,-2.442,-2.4451,-2.4487,-2.4512,-2.4513,-2.4542,-2.4562,-2.4594,-2.4619,-2.4646,-2.4684,-2.4715,-2.4737,-2.4769,-2.4786,-2.4788,-2.4794,-2.4792,-2.4795,-2.4759,-2.4749,-2.4792,-2.4792,-2.4792,-2.4792,-2.4792,-2.4792,-2.443,-2.447,-2.4481,-2.4531,-2.4549,-2.4585,-2.4601,-2.4622,-2.4642,-2.4685,-2.4711,-2.4725,-2.4749,-2.4782,-2.481,-2.4815,-2.4826,-2.4832,-2.4837,-2.4802,-2.4798,-2.4794,-2.4785,-2.4835,-2.4835,-2.4871,-2.4872,-2.4872]}]]